Location: Elma
(49.8670°N, 95.9170°W)
Time: 12:10:18
(UTC-05:00)

ISS - Pass Details

Date: 03 April 2019
Orbit: 408 x 410 km, 51.6° (Epoch: 20 April)

Event Time Altitude Azimuth Distance (km) Brightness Sun altitude
Rises 20:50:20 0° 287° (WNW) 2,341 2.5 -8.9°
Reaches altitude 10° 20:52:26 10° 286° (WNW) 1,477 0.7 -9.2°
Maximum altitude 20:55:44 76° 202° (SSW) 427 -3.8 -9.7°
Enters shadow 20:58:19 15° 116° (ESE) 1,187 -2.1 -10.1°
